Regional & State Weather Roundups


503 
ASUS41 KLWX 261911
RWRLWX
REGIONAL WEATHER ROUNDUP
NATIONAL WEATHER SERVICE BALTIMORE MD/WASHINGTON DC
300 PM EDT WED APR 26 2017
Note: "FAIR" indicates few or no clouds below 12,000 feet
with no significant weather and/or obstructions to visibility.
 TC=TEMPERATURE CELSIUS
 * =Non NWS site. Station does not report precipitation (e.g. rain,
    snow, etc.), thunder, or fog.
DCZ001-MDZ009-015-VAZ040>042-051-053>054-262000-
WASHINGTON METRO
  
CITY           SKY/WX    TMP DP  RH WIND       PRES   REMARKS
WASHINGTON NAT CLOUDY    68  58  70 W6        29.78S                  
DULLES         PTSUNNY   68  57  68 N3        29.78S                  
ANDREWS AFB    CLOUDY    66  56  70 NW5       29.77S                  
FT BELVOIR     CLOUDY    70  57  64 W9        29.78S                  
QUANTICO       PTSUNNY   67  61  81 E6        29.79S                  
COLLEGE PARK*  CLOUDY    65  56  71 NW3       29.77S                  
LEESBURG*      CLOUDY    70  61  73 N5        29.79S                  
MANASSAS*        N/A     70  59  68 N5        29.78S                  
$$
MDZ006>007-011-014-262000-
BALTIMORE METRO
  
CITY           SKY/WX    TMP DP  RH WIND       PRES   REMARKS
BWI AIRPORT    CLOUDY    65  58  78 CALM      29.77R                  
MD SCIENCE CTR   N/A     67  56  67 MISG      29.78S                  
MARTIN STATE   SUNNY     66  61  82 CALM      29.78F                  
ANNAPOLIS      CLOUDY    65  58  78 NE5       29.77S                  
FORT MEADE*    CLOUDY    63  55  77 CALM      29.80S                  
$$
MDZ012-015-019>023-262000-
MARYLAND EASTERN SHORE
  
CITY           SKY/WX    TMP DP  RH WIND       PRES   REMARKS
OCEAN CITY     CLOUDY    58  55  90 E7        29.77R                  
SALISBURY      CLOUDY    64  61  90 N3        29.77R                  
BAY BRIDGE AP* CLOUDY    64  57  77 NW6       29.78S                  
CAMBRIDGE*     CLOUDY    63  57  82 NW5       29.78S                  
EASTON*        CLOUDY    63  57  82 NW5       29.81R                  
$$
MDZ017>025-262000-
SOUTHERN MARYLAND
  
CITY           SKY/WX    TMP DP  RH WIND       PRES   REMARKS
PATUXENT RIVER CLOUDY    62  60  93 NE5       29.78S                  
ST INIGOES     CLOUDY    65  58  78 W7        29.78R                  
LEONARDTOWN*   CLOUDY    64  57  77 CALM      29.79S                  
$$
MDZ003>005-262000-
NORTH CENTRAL MARYLAND
  
CITY           SKY/WX    TMP DP  RH WIND       PRES   REMARKS
FREDERICK*     CLOUDY    68  63  83 CALM      29.81S                  
HAGERSTOWN APT PTSUNNY   68  58  70 VRB3      29.78S                  
WESTMINSTER*   CLOUDY    64  59  82 CALM      29.78S                  
$$
MDZ501>502-262000-
WESTERN MARYLAND
  
CITY           SKY/WX    TMP DP  RH WIND       PRES   REMARKS
OAKLAND*         N/A     68  50  52 W3        29.82F                  
CUMBERLAND*    SUNNY     77  57  50 S3        29.80S                  
$$
VAZ025>031-262000-
SHENANDOAH VALLEY
  
CITY           SKY/WX    TMP DP  RH WIND       PRES   REMARKS
WINCHESTER*    MOSUNNY   72  57  60 NE6       29.77F                  
FRONT ROYAL*   PTSUNNY   72  59  64 CALM      29.77S                  
LURAY*         PTSUNNY   73  59  60 CALM      29.77S                  
NEW MARKET*    SUNNY     74  57  54 CALM      29.76S                  
STAUNTON*      SUNNY     73  59  62 CALM      29.80S                  
WAYNESBORO*    SUNNY     75  60  58 W3        29.79S                  
$$
WVZ021-048>050-054>055-262000-
EASTERN WEST VIRGINIA PANHANDLE
  
CITY           SKY/WX    TMP DP  RH WIND       PRES   REMARKS
MARTINSBURG    CLOUDY    70  57  63 NW5       29.77S                  
PETERSBURG*    SUNNY     78  60  55 CALM      29.75F                  
$$
VAZ036>039-050-262000-
CENTRAL FOOTHILLS
  
CITY           SKY/WX    TMP DP  RH WIND       PRES   REMARKS
CHARLOTTESVILL CLOUDY    77  57  50 CALM      29.76S                  
CULPEPER*      CLOUDY    72  60  66 SE3       29.78S                  
ORANGE*        PTSUNNY   73  59  60 CALM      29.77S                  
GORDONSVILLE*  PTSUNNY   74  60  60 CALM      29.76F                  
WARRENTON*     PTSUNNY   74  55  50 N5        29.77S                  
$$
VAZ055>057-262000-
NORTH AND CENTRAL PIEDMONT
  
CITY           SKY/WX    TMP DP  RH WIND       PRES   REMARKS
FREDERICKSBRG* CLOUDY    73  60  64 SW6       29.77S                  
STAFFORD*      MOSUNNY   72  61  70 CALM      29.81F                  
$$
NCZ024-NYZ072-PAZ021-071-VAZ022-071-262000-
OTHER REGIONAL OBSERVATIONS
  
CITY           SKY/WX    TMP DP  RH WIND       PRES   REMARKS
NEW YORK CITY  CLOUDY    59  56  89 NE3       29.80S                  
PHILADELPHIA   CLOUDY    63  56  78 VRB3      29.76F                  
PITTSBURGH     CLOUDY    74  56  53 SE10      29.73F                  
ROANOKE        MOSUNNY   79  59  50 SE7       29.79F                  
RICHMOND       PTSUNNY   72  58  61 SW5       29.78S                  
RALEIGH        PTSUNNY   77  63  61 SW9       29.80F                  
$$
ANZ530>537-262000-
MARINE OBSERVATIONS
  
STATION/POSITION TIME  TEMP    WIND        PRES
                       AIR SEA DIR/SP/G
                 (UTC) (F)     (DEG/KT/KT) (MB)
THOMAS PT LIGHT  1900   59 57   50/  6/  7   N/A
BALT KEY BRIDGE  1848   61     130/  5/  6 1008.0F
COVE POINT       1848   59      30/  3/  3 1009.0F
LEWISETTA        1848   65 62  340/  5/  7 1008.2F
SOLOMONS ISLAND  1842   59 60   90/  8/  9   N/A
PINEY POINT      1848          330/  8/  9   N/A
$$